Regional Weather Roundup
Issued by NWS

Home | Current Version | Previous Version | Text Only | Print | Product List | Glossary On
Versions: 1 2 3 4 5 6 7 8 9 10 11 12 13 14 15 16 17 18 19 20 21 22 23 24 25 26 27 28 29 30 31 32 33 34 35 36 37 38 39 40 41 42 43 44 45 46 47 48 49 50
000
ASUS43 KDMX 221101
RWRIA

WEATHER ROUNDUP FOR IOWA
NATIONAL WEATHER SERVICE DES MOINES IA
500 AM CST SUN JAN 22 2017

NOTE: "FAIR" INDICATES FEW OR NO CLOUDS BELOW 12,000 FEET WITH NO
SIGNIFICANT WEATHER AND/OR OBSTRUCTIONS TO VISIBILITY.

* - THESE STATIONS ARE NOT NWS STATIONS...THUS NOT UNDER NWS
QUALITY CONTROL.  THEY ALSO DO NOT REPORT WEATHER SUCH
AS PRECIPITATION OR FOG.

IAZ001>003-012>014-020>022-031>034-043>046-221200-
   NORTHWEST IOWA

CITY           SKY/WX    TMP DP  RH WIND       PRES   REMARKS
CARROLL *      CLOUDY    32  32 100 NW8       29.63R WCI  25
CHEROKEE *     CLOUDY    32  32  99 N3        29.63S
DENISON *      CLOUDY    32  30  93 N12       29.63R WCI  23
LE MARS *      CLOUDY    32  30  93 NW10      29.66R WCI  24
ORANGE CITY *  CLOUDY    32  30  93 NW12      29.63S WCI  23
SHELDON *      CLOUDY    32  32 100 NW12      29.62R WCI  23
SIOUX CITY     CLOUDY    34  30  85 NW10      29.67R WCI  26
SPENCER          N/A    N/A N/A N/A MISG      29.62R
STORM LAKE *   CLOUDY    32  30  93 NW12      29.61S WCI  23
$$

IAZ055>058-069>071-079>083-090>094-221200-
   SOUTHWEST IOWA

CITY           SKY/WX    TMP DP  RH WIND       PRES   REMARKS
ATLANTIC *     CLOUDY    30  30 100 N13       29.64R WCI  20
AUDUBON *      CLOUDY    30  28  93 N8        29.64R WCI  23
CLARINDA *     PTCLDY    30  30 100 NE6       29.65R WCI  24
COUNCIL BLFS * CLOUDY    30  30 100 N10       29.65R WCI  21
CRESTON *      CLEAR     30  30 100 NE5       29.63R WCI  25
HARLAN  *      CLOUDY    32  32 100 N12       29.68R WCI  23
LAMONI         FOG       30  29  96 N7        29.60R VSB 1/2 WCI  23
RED OAK *        N/A     30  30 100 N9        29.64R WCI  22
SHENANDOAH *   CLEAR     32  30  93 N3        29.65R
$$

IAZ047>049-059>061-072>074-084-221200-
   CENTRAL IOWA

CITY           SKY/WX    TMP DP  RH WIND       PRES   REMARKS
AMES           CLOUDY    33  32  96 NW5       29.62R WCI  29
ANKENY *       CLOUDY    32  32 100 NW6       29.64R WCI  26
BOONE *        CLOUDY    32  32 100 NW7       29.60S WCI  26
CHARITON *     FOG       30  30 100 NW8       29.60S VSB<1/4 WCI  23
DES MOINES     CLOUDY    33  31  92 N10       29.62R FOG     WCI  25
GRINNELL*      FOG       32  32  99 W3        29.60S VSB 1
KNOXVILLE *    FOG       30  30 100 NW7       29.59F VSB<1/4 WCI  23
MARSHALLTOWN   CLOUDY    32  31  96 NW12      29.59S WCI  23
NEWTON *       FOG       34  34 100 N9        29.60R VSB 1/4 WCI  26
PELLA *        FOG       31  31  99 NW5       29.62S VSB 1/4 WCI  27
PERRY *        CLOUDY    33  32  97 NW9       29.63R WCI  25
$$

IAZ004>006-015-016-023>025-035-036-221200-
   NORTH CENTRAL IOWA

CITY           SKY/WX    TMP DP  RH WIND       PRES   REMARKS
ALGONA *       FOG       34  34 100 NW8       29.60S VSB 1/2 WCI  27
CLARION *      FOG       32  32 100 W7        29.61R VSB 3/4 WCI  26
ESTHERVILLE    CLOUDY    32  32 100 NW10      29.60R FOG     WCI  24
FORT DODGE *   CLOUDY    34  28  80 SW3       29.63R
MASON CITY     FOG       32  32 100 NW7       29.60R VSB 1/2 WCI  26
FOREST CITY *  FOG       32  32 100 NW5       29.59S VSB 3/4 WCI  27
WEBSTER CITY * CLOUDY    32 N/A N/A NW10      29.59S HAZE    WCI  24
IOWA FALLS *   CLOUDY    33  32  98 NW7       29.61R WCI  26
$$

IAZ007>011-017>019-026>030-037>042-050>054-066-221200-
   NORTHEAST IOWA

CITY           SKY/WX    TMP DP  RH WIND       PRES   REMARKS
CEDAR RAPIDS   FOG       31  31 100 CALM      29.58S VSB 1/2
CHARLES CITY * CLOUDY    32  32 100 CALM      29.59R
CLINTON *      FOG       30  29  96 NW7       29.59S VSB 1/2 WCI  23
DECORAH *      FOG       32  32 100 CALM      29.58R VSB<1/4
DUBUQUE        FOG       29  29 100 CALM      29.58S VSB 1/4
MONTICELLO *   FOG       32  32 100 CALM      29.58F VSB<1/4
OELWEIN *      CLOUDY    34  34 100 NW9       29.58R FOG     WCI  26
WATERLOO       CLOUDY    33  31  92 W6        29.60R WCI  28
$$

IAZ064-065-067-068-078-221200-
   EAST CENTRAL IOWA

CITY           SKY/WX    TMP DP  RH WIND       PRES   REMARKS
DAVENPORT      FOG       32  31  96 NW7       29.58S VSB 1/4 WCI  26
IOWA CITY      CLOUDY    30  29  96 CALM      29.61S FOG
MUSCATINE *    CLOUDY    30  30 100 S3        29.61R FOG
QUAD CITIES    FOG       31  29  92 CALM      29.58R VSB 1/2
$$

IAZ062-063-075>077-085>089-095>099-221200-
   SOUTHEAST IOWA

CITY           SKY/WX    TMP DP  RH WIND       PRES   REMARKS
BURLINGTON     FOG       34  34 100 SW3       29.59R VSB 1/2
FAIRFIELD *    CLOUDY    32  32 100 CALM      29.59S FOG
FORT MADISON * FOG       36  36 100 CALM      29.60S VSB 1/2
KEOKUK *       CLOUDY    37 N/A N/A N3        29.58F FOG
OSKALOOSA *    FOG       30  30 100 NW6       29.60S VSB 1/4 WCI  24
CENTERVILLE *  CLOUDY    32  32 100 CALM      29.60S FOG
OTTUMWA        FOG       30  28  92 NW6       29.58S VSB 1/4 WCI  24
WASHINGTON *   FOG       30  30 100 W5        29.61R VSB 1/2 WCI  25
$$

ABBREVIATIONS USED IN REMARKS
   TC - TEMPERATURES IN CELSIUS
  WCI - WIND CHILL INDEX
   HX - HEAT INDEX
  VSB - VISIBILITY
$$




USA.gov is the U.S. government's official web portal to all federal, state and local government web resources and services.